Tiempo cada hora Almazne

Hoy, 3 Agosto, Martes

Tiempo Temperatura Precipitaciones Viento Presión Humedad
00:00 +26°C° 0 mm 2 mps 756 mmHg 63%
01:00 +25°C° 0 mm 2 mps 756 mmHg 64%
02:00 +25°C° 0 mm 2 mps 757 mmHg 65%
03:00 +25°C° 0 mm 2 mps 757 mmHg 65%
04:00 +25°C° 0 mm 1 mps 757 mmHg 65%
05:00 +25°C° 0 mm 1 mps 757 mmHg 65%
06:00 +27°C° 0 mm 1 mps 757 mmHg 59%
07:00 +29°C° 0 mm 1 mps 757 mmHg 53%
08:00 +31°C° 0 mm 1 mps 757 mmHg 47%
09:00 +33°C° 0 mm 1 mps 757 mmHg 42%
10:00 +34°C° 0 mm 1 mps 757 mmHg 37%
11:00 +36°C° 0 mm 1 mps 757 mmHg 32%
12:00 +38°C° 0 mm 2 mps 757 mmHg 32%
13:00 +38°C° 0 mm 3 mps 756 mmHg 31%
14:00 +38°C° 0 mm 4 mps 756 mmHg 30%
15:00 +37°C° 0 mm 4 mps 756 mmHg 32%
16:00 +36°C° 0 mm 3 mps 756 mmHg 35%
17:00 +35°C° 0 mm 3 mps 756 mmHg 38%
18:00 +33°C° 0.1 mm 3 mps 757 mmHg 46%
19:00 +30°C° 0.1 mm 4 mps 757 mmHg 55%
20:00 +27°C° 0.1 mm 4 mps 758 mmHg 63%
21:00 +27°C° 0 mm 3 mps 758 mmHg 67%
22:00 +26°C° 0 mm 2 mps 758 mmHg 71%
23:00 +26°C° 0 mm 1 mps 758 mmHg 75%

Mañana, 4 Agosto, Miércoles

Tiempo Temperatura Precipitaciones Viento Presión Humedad
00:00 +26°C° 0 mm 1 mps 758 mmHg 75%
01:00 +26°C° 0 mm 1 mps 758 mmHg 75%
02:00 +25°C° 0 mm 1 mps 758 mmHg 75%
03:00 +25°C° 0 mm 2 mps 759 mmHg 76%
04:00 +25°C° 0 mm 2 mps 759 mmHg 77%
05:00 +25°C° 0 mm 2 mps 759 mmHg 77%
06:00 +26°C° 0 mm 2 mps 759 mmHg 71%
07:00 +28°C° 0 mm 3 mps 759 mmHg 64%
08:00 +29°C° 0 mm 3 mps 759 mmHg 57%
09:00 +30°C° 0 mm 3 mps 759 mmHg 53%
10:00 +32°C° 0 mm 4 mps 759 mmHg 48%
11:00 +34°C° 0 mm 4 mps 759 mmHg 43%
12:00 +34°C° 0 mm 4 mps 759 mmHg 42%
13:00 +34°C° 0 mm 4 mps 759 mmHg 40%
14:00 +34°C° 0 mm 4 mps 759 mmHg 39%
15:00 +34°C° 0 mm 4 mps 759 mmHg 38%
16:00 +33°C° 0 mm 3 mps 759 mmHg 37%
17:00 +33°C° 0 mm 3 mps 759 mmHg 37%
18:00 +30°C° 0 mm 2 mps 759 mmHg 42%
19:00 +28°C° 0 mm 2 mps 759 mmHg 47%
20:00 +26°C° 0 mm 2 mps 759 mmHg 53%
21:00 +26°C° 0 mm 1 mps 759 mmHg 54%
22:00 +26°C° 0 mm 1 mps 760 mmHg 56%
23:00 +25°C° 0 mm 1 mps 760 mmHg 58%

Pasado mañana, 5 Agosto, Jueves

Tiempo Temperatura Precipitaciones Viento Presión Humedad
00:00 +25°C° 0 mm 1 mps 760 mmHg 59%
01:00 +25°C° 0 mm 1 mps 759 mmHg 61%
02:00 +24°C° 0 mm 1 mps 759 mmHg 62%
03:00 +24°C° 0 mm 1 mps 759 mmHg 64%
04:00 +24°C° 0 mm 1 mps 759 mmHg 65%
05:00 +24°C° 0 mm 1 mps 759 mmHg 66%
06:00 +26°C° 0 mm 2 mps 759 mmHg 58%
07:00 +29°C° 0 mm 2 mps 759 mmHg 51%
08:00 +31°C° 0 mm 3 mps 759 mmHg 44%
09:00 +33°C° 0 mm 3 mps 759 mmHg 40%
10:00 +34°C° 0 mm 4 mps 759 mmHg 36%
11:00 +35°C° 0 mm 4 mps 759 mmHg 31%
12:00 +35°C° 0 mm 4 mps 758 mmHg 32%
13:00 +35°C° 0 mm 5 mps 758 mmHg 33%
14:00 +35°C° 0 mm 5 mps 758 mmHg 34%
15:00 +34°C° 0 mm 5 mps 758 mmHg 37%
16:00 +34°C° 0 mm 4 mps 758 mmHg 40%
17:00 +33°C° 0 mm 4 mps 757 mmHg 42%
18:00 +30°C° 0 mm 4 mps 757 mmHg 51%
19:00 +28°C° 0 mm 3 mps 757 mmHg 60%
20:00 +26°C° 0 mm 2 mps 757 mmHg 69%
21:00 +25°C° 0 mm 2 mps 757 mmHg 69%
22:00 +25°C° 0 mm 2 mps 756 mmHg 70%
23:00 +25°C° 0 mm 2 mps 756 mmHg 70%

6 Agosto, Viernes

Tiempo Temperatura Precipitaciones Viento Presión Humedad
00:00 +25°C° 0 mm 2 mps 756 mmHg 70%
01:00 +24°C° 0 mm 2 mps 755 mmHg 70%
02:00 +24°C° 0 mm 2 mps 755 mmHg 70%
03:00 +24°C° 0 mm 2 mps 755 mmHg 71%
04:00 +24°C° 0 mm 2 mps 755 mmHg 72%
05:00 +24°C° 0 mm 2 mps 754 mmHg 72%
06:00 +27°C° 0 mm 2 mps 754 mmHg 65%
07:00 +29°C° 0 mm 2 mps 754 mmHg 58%
08:00 +31°C° 0 mm 2 mps 753 mmHg 51%
09:00 +34°C° 0 mm 3 mps 753 mmHg 46%
10:00 +36°C° 0 mm 3 mps 753 mmHg 41%
11:00 +38°C° 0 mm 4 mps 753 mmHg 35%
12:00 +37°C° 0 mm 4 mps 752 mmHg 36%
13:00 +37°C° 0 mm 5 mps 752 mmHg 38%
14:00 +38°C° 0 mm 6 mps 752 mmHg 39%
15:00 +36°C° 0 mm 5 mps 752 mmHg 42%
16:00 +35°C° 0 mm 5 mps 751 mmHg 45%
17:00 +34°C° 0 mm 5 mps 751 mmHg 48%
18:00 +33°C° 0 mm 3 mps 751 mmHg 54%
19:00 +30°C° 0 mm 2 mps 751 mmHg 61%
20:00 +28°C° 0 mm 1 mps 751 mmHg 68%
21:00 +27°C° 0 mm 1 mps 751 mmHg 66%
22:00 +27°C° 0 mm 2 mps 751 mmHg 65%
23:00 +27°C° 0 mm 2 mps 750 mmHg 63%

7 Agosto, Sábado

Tiempo Temperatura Precipitaciones Viento Presión Humedad
00:00 +26°C° 0 mm 2 mps 751 mmHg 63%
01:00 +26°C° 0 mm 2 mps 751 mmHg 63%
02:00 +25°C° 0 mm 2 mps 751 mmHg 62%
03:00 +25°C° 0 mm 2 mps 751 mmHg 63%
04:00 +25°C° 0 mm 2 mps 751 mmHg 63%
05:00 +25°C° 0 mm 3 mps 751 mmHg 63%
06:00 +27°C° 0 mm 3 mps 751 mmHg 57%
07:00 +30°C° 0 mm 3 mps 751 mmHg 50%
08:00 +33°C° 0 mm 3 mps 751 mmHg 44%
09:00 +34°C° 0 mm 3 mps 751 mmHg 41%
10:00 +36°C° 0 mm 3 mps 751 mmHg 37%
11:00 +37°C° 0 mm 3 mps 751 mmHg 34%
12:00 +38°C° 0 mm 3 mps 751 mmHg 33%
13:00 +38°C° 0 mm 3 mps 751 mmHg 32%
14:00 +38°C° 0 mm 3 mps 751 mmHg 31%
15:00 +38°C° 0 mm 3 mps 751 mmHg 33%
16:00 +37°C° 0 mm 3 mps 751 mmHg 34%
17:00 +37°C° 0 mm 3 mps 752 mmHg 35%
18:00 +35°C° 0 mm 3 mps 752 mmHg 42%
19:00 +33°C° 0 mm 4 mps 753 mmHg 48%
20:00 +30°C° 0 mm 4 mps 753 mmHg 54%
21:00 +29°C° 0 mm 4 mps 753 mmHg 57%
22:00 +28°C° 0 mm 4 mps 753 mmHg 61%
23:00 +27°C° 0 mm 4 mps 754 mmHg 65%

8 Agosto, Domingo

Tiempo Temperatura Precipitaciones Viento Presión Humedad
00:00 +27°C° 0 mm 4 mps 754 mmHg 66%
01:00 +27°C° 0 mm 4 mps 754 mmHg 67%
02:00 +27°C° 0 mm 4 mps 754 mmHg 69%
03:00 +27°C° 0.2 mm 3 mps 754 mmHg 69%
04:00 +27°C° 0.2 mm 3 mps 755 mmHg 70%
05:00 +27°C° 0.2 mm 3 mps 755 mmHg 70%
06:00 +28°C° 0 mm 3 mps 755 mmHg 67%
07:00 +29°C° 0 mm 3 mps 755 mmHg 63%
08:00 +30°C° 0 mm 3 mps 755 mmHg 60%
09:00 +31°C° 0 mm 3 mps 756 mmHg 54%
10:00 +34°C° 0 mm 3 mps 756 mmHg 47%
11:00 +36°C° 0 mm 3 mps 756 mmHg 41%
12:00 +34°C° 0.5 mm 3 mps 756 mmHg 46%
13:00 +33°C° 0.5 mm 3 mps 756 mmHg 51%
14:00 +31°C° 0.5 mm 3 mps 756 mmHg 56%
15:00 +29°C° 1.8 mm 4 mps 756 mmHg 61%
16:00 +27°C° 1.8 mm 5 mps 756 mmHg 67%
17:00 +24°C° 1.8 mm 6 mps 757 mmHg 73%
18:00 +25°C° 0 mm 5 mps 757 mmHg 72%
19:00 +25°C° 0 mm 4 mps 757 mmHg 72%
20:00 +25°C° 0 mm 2 mps 757 mmHg 72%
21:00 +25°C° 0.2 mm 2 mps 757 mmHg 73%
22:00 +25°C° 0.2 mm 1 mps 757 mmHg 74%
23:00 +24°C° 0.2 mm 1 mps 758 mmHg 75%
Mostrar más

Necesitamos Su Consentimiento

Meteoprog y nuestros Proveedores de Servicios pueden almacenar y acceder a sus datos personales como cookies, identificadores de dispositivo u otras tecnologías similares de su dispositivo y procesar dichos datos para personalizar contenido y anuncios, además de ofrecer funciones de redes sociales y analizar el tráfico.

  • Almacenar y/o acceder a información en su dispositivo

    Se puede almacenar o acceder a cookies, identificadores de dispositivo u otra información de su dispositivo para los fines anteriormente indicados.

  • Anuncios y contenido personalizados, medición de anuncios y contenido, percepciones del público, y desarrollo de productos

    Los anuncios y el contenido pueden personalizarse en base a su perfil. Se pueden añadir más datos para personalizar mejor los anuncios y contenidos. Se puede medir el rendimiento de los anuncios y contenidos. Se puede obtener la percepción sobre el público que ha visto los anuncios y contenidos. Dichos datos pueden usarse para desarrollar o mejorar la experiencia del usuario, sistemas y software.

Al hacer clic en ‘Estoy De Acuerdo’ usted permitirá el uso de las cookies, identificadores de dispositivo, balizas web u otras tecnologías similares indicadas. Su configuración puede cambiarse desde el navegador de su dispositivo.

Para ciertos fines, los intereses legítimos pueden ser considerados por encima del consentimiento. Puede leer más sobre ello en nuestra Política de Privacidad y Cookies.